Overview Statistics Trail Chart Weather Telemetry Raw packets
 

This is the latest recevied weather packets stored in our database for station/object AA7VG. If no packets are shown the sender has not sent any weather packets the latest 10 day(s).

<< 111 112 113 114 >>
Time Temp. Humidity Pressure Rain* Wind** Luminosity Snow
1787768322 28.89° C 30% 1021.9 hPa 0 mm - - -
1787768018 28.89° C 28% 1022 hPa 0 mm - - -
1787767717 29.44° C 28% 1022.4 hPa 0 mm - - -
1787767417 29.44° C 28% 1022.3 hPa 0 mm - - -
1787767116 29.44° C 28% 1022.6 hPa 0 mm - - -
1787766815 27.78° C 29% 1022.3 hPa 0 mm - - -
1787766514 27.78° C 30% 1022 hPa 0 mm - - -
1787766214 28.33° C 30% 1022.4 hPa 0 mm - - -
1787765910 27.22° C 30% 1022.5 hPa 0 mm - - -
1787765606 27.22° C 31% 1022.6 hPa 0 mm - - -
1787765301 27.22° C 30% 1022.5 hPa 0 mm - - -
1787765000 27.22° C 31% 1022.5 hPa 0 mm - - -
1787764696 27.78° C 31% 1022.6 hPa 0 mm - - -
1787764396 27.78° C 31% 1022.5 hPa 0 mm - - -
1787764092 27.78° C 31% 1022.5 hPa 0 mm - - -
1787763788 26.67° C 32% 1022.7 hPa 0 mm - - -
1787763483 26.67° C 32% 1022.7 hPa 0 mm - - -
1787763182 26.67° C 32% 1022.8 hPa 0 mm - - -
1787762877 25.56° C 34% 1023.1 hPa 0 mm - - -
1787762572 26.11° C 35% 1022.6 hPa 0 mm - - -
1787762271 25.56° C 35% 1022.5 hPa 0 mm - - -
1787761964 25° C 35% 1022.9 hPa 0 mm - - -
1787761659 25.56° C 34% 1022.8 hPa 0 mm - - -
1787761354 25.56° C 36% 1022.8 hPa 0 mm - - -

* Rain latest hour (hover to see other rain measurements)
** Current wind speed in m/s (hover to see current wind gust speed)